Volver al catálogo

SDA_1675

ActivoMilitarPO
NORAD 65985·PAYLOAD·🇺🇸 United States

Lanzado Oct 15, 2025 desde Vandenberg Space Force Base

Loading…

Próximos Pases (próximas 24 horas)

TLE

ActualizadoSource: Space-Track

Época: Sep 14, 2026, 14:32 UTC

1 65985U 25230M   26257.60563261  .00000138  00000-0  11236-3 0  9994
2 65985  81.2973 128.7797 0002065 292.5884  67.5055 13.84769451 46182

Sigue SDA_1675 en tiempo real con AllMySat

Download on the App Store